Location: Bergnershof
(48.9468°N, 10.9431°E)
Time: 11:42:53
(UTC+00:00)

Okean-O - Pass Details

Date: 03 March 2021
Orbit: 639 x 640 km, 98.2° (Epoch: 12 April)

Event Time Altitude Azimuth Distance (km) Brightness Sun altitude
Rises 18:21:59 0° 180° (S) 2,934 6.0 -13.8°
Reaches altitude 10° 18:24:15 10° 186° (S) 2,029 5.2 -14.1°
Maximum altitude 18:28:31 47° 261° (W) 850 3.7 -14.8°
Drops below altitude 10° 18:32:49 10° 335° (NNW) 2,045 5.7 -15.5°
Sets 18:35:07 0° 342° (NNW) 2,959 6.4 -15.9°
